Member area
Imprimable
Liège, 05/05/2019, BEL - 15km de Liege Métropole
List of reports > 25km - Trail - Result
Search: Page: [1]
379 Entries
 
Complains are not accepted anymore. Results are final.
Category
PosNrNameAgeNATTeamTimeTkmMoy.PlaceNameCity
1.5121LECLERQ PIERRE41BELI LOVE RUNNING 2:00:274:50 12.451ve1QUEUE-DU-BOIS
2.5494LONCAR FREDDY47BELMJ SPORT2:08:295:09 11.682ve1HERMALLE SOUS HUY
3.5004NIHANT FLORENT RENAUD23BEL2:10:095:13 11.531senHERSTAL
4.5101BELVAUX YANNICK35BELDECATHLON2:10:395:14 11.482senWAREMME
5.5313TROUPIN CHARLES37BELULIEGE - JCPMF 2:10:545:15 11.463senVERVIERS
6.5492WITTORSKI QUENTIN PIERRE22BEL2:12:045:17 11.364senANTHISNES
7.5498AYAOU BASIL21BEL2:12:085:18 11.355senGRIVEGNEE
8.5059VERROT MATHIAS25FRAHEPL - PERSONNE2:12:255:18 11.336senSAINT JEAN DE MUZOLS
9.5192FOGUENNE SIMON32BEL2:12:395:19 11.317senFLÉMALLE
10.5289ROBERT JONATHAN37BELULIEGE -2:13:155:20 11.268senLIÈGE
11.5084PERIN LOGAN22BELHAUTE ECOLE CHA2:13:425:21 11.229senANDENNE
12.5434COURQUIN EDOUARD27FRA2:13:525:22 11.2110senLIÈGE
13.5062CARLIER FRANÇOIS46BELHEPL LOGO2:13:565:22 11.203ve1HERMÉE
14.5448SCHOUMACKERS BENOÎT45BEL2:14:055:22 11.194ve1HUY ( SOLIÈRES )
15.5009BRUNEEL PHILIPPE44BELCHACHADOUDOU2:14:345:23 11.155ve1OUPEYE
16.5122PARENT PASCAL50BELINSTRUCTION PUB2:14:445:24 11.131ve2LIEGE
17.5538FORTMANS STÉPHANIE42BELTCBM2:14:455:24 11.131ai1LANAYE
18.5163CHARLIER DAMIEN33BELJOGGING CLUB HE2:16:165:28 11.0111senLIÈGE
19.5266OLIVEIRA LOURO SERGIO26PRT2:16:215:28 11.0012senLEXY
20.5286RAVIGNA PIERRE61BELJIA2:16:425:29 10.971ve3GRIVEGNÉE
21.5123PEETERSILLE FREDERIC47BELINSTRUCTION PUB2:16:455:29 10.976ve1TROOZ
22.5505NIZET CHRISTOPHE29BEL2:16:595:29 10.9513senLIÈGE
23.5085TIREZ GILLES34BELCARITAS INTERNA2:17:155:30 10.9314senLIEGE
24.5464DEWANCKELE CEDRIC42BEL2:17:225:30 10.927ve1ANGLEUR
25.5256MAYOMBO CHRISTIAN31BEL2:17:305:30 10.9115senLIEGE
26.5251MARCHAL LUDOVIC46BELJIA2:17:485:31 10.898ve1LIEGE
27.5065GAIFFE PAUL22FRAHEPL KINE2:18:115:32 10.8616senLIÈGE
28.5500FRANCOIS JORDAN38BELYOGGING CLUB2:18:225:33 10.8417senBILSTAIN
29.5051BROUWERS MICHAËL39BELHEPL - PERSONNE2:18:235:33 10.8418senXHENDELESSE
30.5501ROBINET DANY31BELYOGGING CLUB2:19:265:35 10.7619senWELKENRAEDT
31.5126FWESPHAEL EVELYNE39BELINSTRUCTION PUB2:19:555:36 10.721damCHÊNÉE
32.5104COURTOY NICOLAS33DEUMUCO RUN LIÈGE2:21:005:39 10.6420senLIÈGE
33.5187DUPONT JEREMIE37BELULIEGE -2:21:015:39 10.6421senANDENNE
34.5010MARCHAL PIERRE31BEL2:21:025:39 10.6422senLIÈGE
35.5050SCHMITS RAPHAEL42BELHEPL - PERSONNE2:21:535:41 10.579ve1
36.5052DEWALLEF PASCAL45BELHEPL - PERSONNE2:22:045:41 10.5610ve1SAIVE
37.5514AOUICHA ANTOINE39BEL2:22:095:42 10.5523senHUY
38.5489LECLERCQ GREGORY30BEL2:22:375:43 10.5224senENFER DES VILLES
39.5071RENARD CHRISTOPHE26BELHEPL KINE2:22:425:43 10.5125senANGLEUR
40.5451FPANS MARINE29BELRFCL2:23:185:44 10.472damLIEGE
41.5162CERFONTAINE PHILIPPE40BELULIEGE - JCPMF 2:23:315:45 10.4511ve1EUPEN
42.5263NIHANT FABIAN52BEL2:23:425:45 10.442ve2HERSTAL
43.2417DA SILVA TONY43PRTRFCL2:23:485:46 10.4312ve1SPRIMONT
44.2215FBENGLER NATACHA44BEL2:23:485:46 10.432ai1SPRIMONT
45.5018WILLEMS PIERRE YVAN43BEL2:24:145:47 10.4013ve1COMBLAIN-AU-PONT
46.5151BONOMO SEBASTIEN37BEL2:24:265:47 10.3926senBASSENGE
47.5113PIRON DIDIER54BELCAP NRB2:24:325:47 10.383ve2SERAING
48.5105FRERE SEBASTIEN37BELMUCO RUN LIÈGE2:24:485:48 10.3627senBONCELLES
49.5470LECLERCQ YANNICK39BEL2:25:055:49 10.3428senVERVIERS
50.5094KOSCHNICKE YVES31BELRESA2:25:055:49 10.3429senQUEUE DU BOIS (BEYNE-HEUS
51.5012MALENGREAUX BENJAMIN37BELFAT TEAM2:25:145:49 10.3330senMARCHIN
52.5491DEDRY THOMAS35BEL2:25:295:50 10.3131senLIEGE
53.5518BERNAR FRANCOIS24BEL2:25:505:50 10.2932senWANZE
54.5299FSLESINGEROVA EVA35CZE2:25:555:51 10.283damLIÈGE
55.5124PROES MICKAEL40BELINSTRUCTION PUB2:26:015:51 10.2714ve1HEURE-LE-ROMAIN
56.5125FVAES SOPHIE31BELINSTRUCTION PUB2:26:065:51 10.274damLIÈGE
57.5066GONZALEZ KILLIAN22FRAHEPL KINE2:26:125:51 10.2633senLIEGE
58.5439BLANGY FLORENT31FRA2:26:185:52 10.2534senMARSEILLE
59.5080GILDEMEESTER YANNICK41BELHAUTE ECOLE CHA2:26:195:52 10.2515ve1PETIT-RECHAIN
60.5092BREVER JEAN-FRANÇOIS44BELRESA2:26:315:52 10.2416ve1ANDRIMONT
61.5472CRAHAY CÉDRIC43BEL2:26:415:52 10.2317ve1SPRIMONT
62.5054VROOMEN DAVID46BELHEPL - PERSONNE2:26:585:53 10.2118ve1
63.5320VANDENBROUCK STÉPHAN45BELILOVERUNNING2:27:055:53 10.2019ve1TILLEUR
64.5193FONTAINE FABRICE50BEL2:27:095:54 10.194ve2LIÈGE
65.5061LOX DAMIEN19BELHEPL TECH2:27:095:54 10.191espLAMBERMONT
66.5506FRANCUS BRIEUC34BEL2:27:255:54 10.1835senFEXHE-SLINS
67.5406LEMPEREUR LOÏC24BEL2:27:395:55 10.1636senNEUPRÉ
68.5408FORTEMPS JIMMY39BEL2:27:445:55 10.1537senSAROLAY
69.5227LACROIX ANDRÉ47BEL2:27:505:55 10.1520ve1DISON
70.5028PIRON MAXENCE21BELHEL2:28:065:56 10.1338sen
71.5461OUAHID ABDALLAH57ITA2:28:275:57 10.105ve2JUPILLE
72.5039CAM DOGAN30BELBEL2:28:585:58 10.0739senGRIVEGNÉE
73.5437CANIVET GREGORY38BELLA MILF ELLE ES2:29:386:00 10.0340senLIEGE
74.5517PIIRSON STEPHANE18BEL2:29:526:00 10.012espHEURE-LE-ROMAIN
75.5077NORO FRANÇOIS-XAVIER37BELCOLLÈGE SAINT-L2:32:176:06 9.8541sen
76.5269OTTEN JOËL37BELULIEGE - JCPMF 2:35:086:13 9.6742senESNEUX
77.5185DUBOIS JONATHAN33BEL2:35:116:13 9.6743senTILFF
78.2545DUPONT BASILE26BEL2:35:136:13 9.6644senWOLUWE-SAINT-PIERRE
79.5502MARIN FREDERIC45BEL2:36:086:15 9.6121ve1WOLUWE-SAINT-PIERRE
80.5307THEAU EMILE20FRAULIEGE -2:36:156:15 9.6045senCASTELGINEST
81.5089MIÉVIS KEVIN30BELVILLE DE LIEGE2:38:136:20 9.4846senLIÈGE
82.5148BINARD MARC63BELULIEGE - JCPMF 2:38:136:20 9.482ve3ANGLEUR
83.5459LEMAL DENIS51BEL2:40:106:25 9.376ve2LIÈGE
84.5504PIOT HERVÉ31BELPIOT2:40:256:25 9.3547senVISÉ
85.5270OTTEN YANNIC39BEL2:40:266:26 9.3548senOUPEYE
86.5003BARANOV ALEXANDR18BEL2:40:356:26 9.343espSERAING
87.5277PETERS PIERRE41BEL2:40:406:26 9.3422ve1JUPRELLE
88.5191FERNEZ PATRICK42BELI?? RUNNING2:40:576:27 9.3223ve1BEYNE-HEUSAY
89.5218JACOBS FABIEN52BELRUNASTOCK2:40:576:27 9.327ve2SAINT-GEORGES
90.5140BAUMANS BENOIT47BELRUNASTOCK2:40:586:27 9.3224ve1SAINT-GEORGES
91.5041DEGUELDRE MICHAEL25BELBEL2:41:026:27 9.3149senHOMBOURG
92.5471PIRENNE MARC49BEL2:41:426:29 9.2825ve1AUBEL
93.5467THOLL JEAN-PHILIPPE39BEL2:41:446:29 9.2850senETALLE
94.5465TORNABENE JONATHAN36BEL2:41:546:29 9.2751senLIÈGE
95.5539FJENNIGES SOPHIE45BELSWDE2:42:006:29 9.263ai1
96.5222KALKMANN FREDERIC47BEL2:42:176:30 9.2426ve1HANNUT
97.5430LEJEUNE FRANÇOIS34BEL2:42:196:30 9.2452senPAIFVE
98.5035FPACYNA LAURA27BELSAFRAN AERO BOO2:42:216:30 9.245damLIÈGE
99.5036RAUSIN BRICE27BELSAFRAN AERO BOO2:42:216:30 9.2453senBILSTAIN
100.5300SMITS JAN52NLD2:42:336:31 9.238ve2LIÈGE
101.5540CHORANA PHIRUM38BELSWDE2:42:366:31 9.2354sen
102.5493GAVRAY THOMAS32BEL2:42:446:31 9.2255senLIEGE
103.5055FGROS CÉCILE22FRAHEPL - PERSONNE2:42:466:31 9.226damLIÈGE
104.5180DETAILLE DAVID31BEL2:42:476:31 9.2256senFLEMALLE
105.5490DEDRY ANTOINE33BEL2:42:556:31 9.2157senLIEGE
106.5278PIAZZA MANU44BEL2:42:576:32 9.2127ve1VIVEGNIS
107.5056GUCKEL BRUNO54BELHEPL - PERSONNE2:43:006:32 9.209ve2HOUTAIN SAINT SIMEON
108.5108LHUIRE JEAN-MARC44BELMUCO RUN LIÈGE2:43:076:32 9.2028ve1LIÈGE
109.5040COLSON DAVID40BELBEL2:43:106:32 9.1929ve1ANGLEUR
110.5288RIGAUX DIDIER54BEL2:43:176:32 9.1910ve2MARBEHAN
111.5460THIRY SAMUELBEL2:43:236:33 9.181xxxRACOUR
112.5262NEUTELINGS THIBAUT39BEL2:43:446:33 9.1658senTILFF
113.5136AGNOLI ANTHONY ATTILIO33BEL2:44:176:35 9.1359senMARTELANGE
114.5146BILLEN FRÉDÉRIC43BELULIEGE -2:44:216:35 9.1330ve1TROOZ
115.5081HARDY FRANÇOIS37BELHAUTE ECOLE CHA2:44:306:35 9.1260senLA REID
116.5457MARTIN LUDOVIC43BEL2:44:336:35 9.1231ve1ROCLENGE
117.5048RENAULD MICHEL43BELCLUB D'ENTREPRI2:44:346:35 9.1232ve1WARSAGE
118.5103BULTOT CÉDRIC33BELMUCO RUN LIÈGE2:44:476:36 9.1061senESNEUX
119.5158NR 5158 BEL2:44:496:36 9.102xxx
120.5161CASTAIGNE MATTHIEU39BEL2:44:526:36 9.1062senANGLEUR
121.5248FMAGAM MURIEL46BELRUNNERS TEAM SP2:44:526:36 9.104ai1SPRIMONT
122.5202GEORGES MICHAEL38BELBETRAIL / POCHT2:44:586:36 9.0963senSAIVE
123.5454GOBERT LOUIS19BEL2:45:006:36 9.094espSPRIMONT
124.5450JEHIN THOMAS27BEL2:45:116:37 9.0864senLIÈGE
125.5178DEMORI JULIEN24BELSERUNNERS2:45:116:37 9.0865senBIERSET
126.5318FVANDE BERG ADÉLIE28BEL2:45:156:37 9.087damWIHOGNE
127.5095MONTULET ARNAUD35BELRESA2:45:166:37 9.0866senBRESSOUX
128.5327VYNCKE NICOLAS28BEL2:45:166:37 9.0867senWIHOGNE
129.5474VIGNERONT DENIS39BEL2:45:226:37 9.0768senHANNUT
130.5429MAGOTTEAUX BORIS41BELZATAC LIÈGE2:45:436:38 9.0533ve1LIÈGE
131.5130DELMOTTE PASCAL44BELTIZIANO PORCINO2:45:476:38 9.0534ve1SLINS
132.5017VERGNION FREDERIC18BEL2:45:496:38 9.055espTILFF
133.5466FBLAS CHRISTINA33BEL2:46:126:39 9.038damCORWAREM
134.5488LEMPEREUR ARNAUD26BEL2:46:146:39 9.0269senNEUPRÉ
135.5001DHONDT PHILIPPE58BEL2:46:326:40 9.0111ve2ZOERSEL
136.5445CROS JEREMY34FRA12.COM - JCH2:46:566:41 8.9970senTHIMISTER
137.5236LEERSCHOOL MAXIME29BELT4F2:47:196:42 8.9771senSPRIMONT
138.5106GOMBEER YVES38BELMUCO RUN LIÈGE2:47:296:42 8.9672senSERAING
139.5137ALONSO HERNANDEZ MARCO38BELJCH2:47:316:43 8.9673senBEAUFAYS
140.5283POISMANS RENÉ-PASCAL27BEL2:47:356:43 8.9574senBRUXELLES
141.5088MICHEL RAMAKERS43BELVILLE DE LIEGE2:47:536:43 8.9435ve1BONCELLES
142.5159BUSTIN BERNARD45BEL2:47:556:43 8.9336ve1JUPRELLE
143.5156BRASSINE VINCENT45BELJCPMFJUPRELLE2:47:566:44 8.9337ve1HERMEE
144.5082FLEGISA STEPHANIE34BELHAUTE ECOLE CHA2:48:036:44 8.939damSERAING
145.5427BELLEM ROLAND43BELLES MOTIVÉS DU 2:48:066:44 8.9238ve1DALHEM
146.5093FRISON DAVID46BELRESA2:48:186:44 8.9139ve1ALLEUR
147.5456LEBER MATHIEU33BEL2:48:276:45 8.9075senLIÈGE
148.5147BILOCQ LUDOVIC33BEL2:48:286:45 8.9076senWANDRE
149.5096FPIRLOT AXELLE44BELRESA2:48:316:45 8.905ai1ANDRIMONT
150.5279PIERCO KRISTOF40BEL2:48:316:45 8.9040ve1STROMBEEK-BEVER
151.5110NELLES PAUL_PHILIPPE33BELMUCO RUN LIÈGE2:48:336:45 8.9077senLIÈGE
152.5261MOULET BORIS26BEL2:48:396:45 8.8978senLIÈGE
153.5060SLUYSMANS DANIEL59BELLIEGE AIRPORT2:48:396:45 8.8912ve2GRACE-HOLLOGNE
154.5030TONNOIR GAUTHIER22BELHEL2:48:466:46 8.8979sen
155.5321FVANDERMERSCH LÉA24BELULIEGE -2:48:496:46 8.8910damARLON
156.5076JASSELETTE FRANÇOIS22BELHEPL BEECKMAN2:49:176:47 8.8680senHODEIGE
157.5455CURNEL GINO50BEL2:49:186:47 8.8613ve2NESSONVAUX
158.2931LUYMOEYEN THIBAULT25BELCJPL2:49:206:47 8.8681senBELGIQUE
159.5127BLANCHY JEAN-LOUP66BELLGS2:49:356:47 8.853ve3SAINT VINCENT
160.5302FSOULAN LUCIE26FRAULIEGE -2:49:376:48 8.8411dam4030
161.5133PAUL CORENTIN40BELTIZIANO PORCINO2:49:406:48 8.8441ve1TINLOT
162.5134PORCINO TIZIANO30BELTIZIANO PORCINO2:49:416:48 8.8482senJUPRELLE
163.5155BRASSELLE CHRISTIAN61BELJCPMF JUPRELLE2:49:486:48 8.834ve3SLINS
164.5458COLSON CHARLES69BEL2:49:486:48 8.835ve3EVEGNEE
165.5250FMARBEHANT ODILE37BEL2:49:556:48 8.8312damSAIVE
166.5508WIONMONT WILLIAM31BEL2:50:256:49 8.8083senRHISNES
167.5473GEERINCK ANTON33BEL2:50:316:50 8.8084senLIEGE
168.5172DARCIS FRÉDÉRIC46BELJUPRELLE JOGGIN2:50:416:50 8.7942ve1WIHOGNE
169.5297SCHORKOPS GAËL31BEL2:50:426:50 8.7985senLIÈGE
170.5234LAZZARI GEOFFREY46BEL2:50:446:50 8.7943ve1OUPEYE
171.5143BEUSEN BENJAMIN38BEL2:50:466:50 8.7886senFLÉMALLE
172.5029FSACRÉ ANNE54BELHEL2:50:526:51 8.781ai2
173.5275PERWEZ THIERRY50BEL2:51:016:51 8.7714ve2CHAUDFONTAINE
174.5045BEYER BRUNO56BELCLUB D'ENTREPRI2:51:046:51 8.7715ve2SAIVE
175.5217FHUMBLET VIRGINIE46BELRUN AND BIKE2:51:066:51 8.776ai1ESNEUX
176.5239LEROY ÉRIC50BEL2:51:086:51 8.7716ve2OMBRET
177.5063BARBOU QUENTIN23FRAHEPL KINE2:51:096:51 8.7787senLIÈGE
178.5070FLAURENT HÉLÈNE24FRAHEPL KINE2:51:166:52 8.7613damLIÈGE
179.5221KADIOGLU ISMAIL43BEL-2:51:216:52 8.7544ve1MONTEGNÉE
180.5057FLAMBERT VIRGINIE39BELHEPL - PERSONNE2:51:226:52 8.7514damMELEN
181.5440DRIESEN OLIVIER49BEL2:51:366:52 8.7445ve1ROLOUX
182.5020VAN HESPEN BENOIT51BEL2:51:366:52 8.7417ve2BAS-OHA
183.5186DUMOULIN JEAN-LUC46BELBAC2:51:486:53 8.7346ve1BATTICE
184.5438FREDERIC TADINO44BEL2:51:576:53 8.7247ve1VILLERS-LE-BOUILLET
185.5407MATAGNE NICOLAS38BEL2:51:586:53 8.7288senVINALMONT
186.5079FCOPPE SIGRID45BELHAUTE ECOLE CHA2:52:046:53 8.727ai1FLÉRON
187.5246FLOUVIAUX CINDY40BELRUNNING FOR TOU2:52:066:54 8.728ai1PEPINSTER
188.5112PAULY JEAN-PIERRE51BELCAP NRB2:52:066:54 8.7218ve2MOMALLE
189.5233LAMBERT GUY55BEL2:52:126:54 8.7119ve2ANS
190.5131DESADELEER JEAN-FRANCOIS47BELTIZIANO PORCINO2:52:136:54 8.7148ve1HOUTAIN SAINT SIMEON
191.5503MICHEL JEAN-MARC58BEL2:52:276:54 8.7020ve2VISÉ
192.5075GERAERTS VALENTIN21BELHEPL BEECKMAN2:52:306:54 8.7089senLIMBOURG
193.5441DE ROP OLIVIERBEL2:52:326:55 8.693xxxESNEUX
194.5435ZUCCARINI ENZO38BELLES JOB'S2:52:386:55 8.6990senMARCHIN
195.5311TIXHONN JÉRÉMIEE34BELLES JOB'S2:52:426:55 8.6991senAMAY
196.5306TASSIGNON CORENTIN27BELULIEGE -2:52:436:55 8.6992senLIÈGE
197.5177DELMOITIEZ STÉPHANE44BEL2:52:476:55 8.6849ve1XHENDELESSE
198.5469GRENS ROBERT51NLDAV WEERT2:52:496:55 8.6821ve2WEERT
199.5452HELLAS ARNAUD26BEL2:52:556:55 8.6893senLILLE
200.5428DEBRA CHRISTOPHE29BEL2:53:036:56 8.6794senLIÈGE
201.5294SANTALUCIA FABRICE52FRA2:53:446:57 8.6322ve2SAINT ETIENNE DE CUINES
202.5073VIEL CORTO26FRAHEPL KINE2:53:566:58 8.6295senLIÈGE
203.5211HENRION SVEN34BELRT BRAIVES2:54:056:58 8.6296senWAREMME
204.5166CIULLA JOSEPH55BEL2:54:056:58 8.6223ve2LIÈGE
205.5032DOBROWOLSKI JEAN47BELSAFRAN AERO BOO2:54:076:58 8.6250ve1LIÈGE
206.5232LAMAIRE PASCAL46BELON THE ROAD AGA2:54:246:59 8.6051ve1FLÉMALLE-HAUTE
207.5436DUMOULIN PHILIPPE53BEL2:54:246:59 8.6024ve2HERVE-CHARNEUX
208.5013FDETHIER CÉLIA37BEL2:54:286:59 8.6015damVINALMONT
209.5190EVERAERT BENJAMIN37BEL2:54:447:00 8.5997senLA REID
210.5043WEGRIA FRANCOIS42BELTEAM SOLIDARIS2:54:487:00 8.5852ve1AMAY
211.5152FBOSSON MARGAUX27BELULIEGE -2:54:497:00 8.5816damANGLEUR
212.5219JENNEN PATRICK52NLD2:54:527:00 8.5825ve2BONCELLES
213.5068HÉRISSON AUBIN23FRAHEPL KINE2:54:537:00 8.5898senLIÈGE
214.5449VROONEN MATTHIEUBEL2:55:147:01 8.564xxxLIÈGE
215.5083FNOEL DOMINIQUE41BELHAUTE ECOLE CHA2:55:287:02 8.559ai1PETIT-RECHAIN
216.5424FDELFERIER CORALIE37BELAREL TRAIL LUXE2:55:307:02 8.5517damLEGLISE
217.5091TERGUI JAMAL47BELVILLE DE LIEGE2:55:307:02 8.5553ve1OLNE
218.5087JOSEPH BERNARD42BELVILLE DE LIEGE2:55:317:02 8.5554ve1LIEGE
219.5182DI CESARE STEPHANE42BEL2:55:387:02 8.5455ve1ESNEUX
220.5015MEUNIER MARC48BELAREL TRAIL LUXE2:55:507:02 8.5356ve1LÉGLISE
221.5281PIRLOT JOFFROY36BELLA VELAINOISE2:55:587:03 8.5299senACHÊNE
222.5499FROYEN ANNIE26BELJCPMF ST192:56:107:03 8.5218damGRAND-RECHAIN
223.5005BRACH DIDIER44BEL2:56:107:03 8.5157ve1LIEGE
224.5007MARCHAL XAVIER53BEL2:56:157:03 8.5126ve2LIEGE
225.5431SPRIMONT ARNAUD30BEL2:56:347:04 8.50100senLIÈGE
226.5141BEAUJEAN DAVID41BEL2:57:257:06 8.4658ve1ARGENTEAU
227.5497FGILSON AURÉLIE29BELJIA2:58:037:08 8.4319damLIÈGE
228.2379CORNET DENIS50BEL2:58:067:08 8.4227ve2SPRIMONT
229.5317VANASCHEN VINCENT48BEL2:58:077:08 8.4259ve1ST NICOLAS
230.5432MICHIELIN ERIC54BEL2:58:107:08 8.4228ve2LIÈGE
231.5213FHOEKSEMA PAULINE24FRAULIEGE -2:58:207:08 8.4120damTILFF
232.5118FDISPAS CÉLINE44BELFONDATION CHR C2:58:227:09 8.4110ai1CHAUDFONTAINE
233.5453HAULET NICOLAS41BELESPOT TEAM2:58:427:09 8.3960ve1SPRIMONT
234.5022LEENDERS KEVIN33BEL2:58:557:10 8.38101senVILLERS LE BOUILLETS
235.5210HAMON MARTIN32FRA2:58:577:10 8.38102senTILFF
236.5316TUTUNARU ALEXANDRU36ROUULIEGE -2:58:587:10 8.38103senANGLEUR-LIEGE
237.5446FOLBRECHTS DOROTHÉE35BEL2:59:017:10 8.3821damBEAUFAYS
238.5201GEELEN ERWIN30BEL2:59:107:10 8.37104senVOEREN
239.5205FGONCALVES ISABELLE51BELZATAC PECCQ2:59:177:11 8.372ai2PECQ
240.5214FHUBERT SOPHIE33BEL2:59:197:11 8.3722damEMBOURG
241.5215HUBIN FRANÇOIS46BEL2:59:407:12 8.3561ve1AYWAILLE
242.5002FDECOEUR CHRISTIANE56BEL2:59:407:12 8.353ai2LIEGE
243.5200GARIBALDI ANGELO49ITA2:59:447:12 8.3562ve1CHÊNÉE
244.5292RUGGIERI MIRKO42BEL2:59:467:12 8.3463ve1HERSTAL
245.5067FGROS EMILIE24FRAHEPL KINE2:59:507:12 8.3423damLIEGE
246.5023STRUB JEAN46BELLIÈGE 12:59:527:12 8.3464ve1SERAING
247.5208HAEYEN LIONEL34BEL3:00:117:13 8.33105senGLONS
248.5168CORIN THIERRY52BEL3:00:457:14 8.3029ve2VIVEGNIS
249.5153BOUVIER NICOLAS25BELULIEGE -3:00:577:15 8.29106senMAIZERET
250.5496FÉTIENNE NADIA52BELLES ZAFTERS3:01:287:16 8.274ai2ENSIVAL
251.5468MASY DANIEL61BEL3:01:377:16 8.266ve3LIÈGE
252.5031COLLE JEAN-FRANCOIS34BELLIÈGE ATLAS3:01:467:17 8.25107senSAIVE
253.5204GIELEN JEAN-LOUIS50BEL3:01:537:17 8.2530ve2ESNEUX
254.5305FTANASE ARIELLE52BELI LOVE RUNNING 3:02:517:19 8.205ai2LIÈGE
255.5120FBEAUMONT SONIA42BELINSTRUCTION PUB3:02:527:19 8.2011ai1TROOZ
256.5433FMOREUX AMICIE22FRA3:02:537:19 8.2024damLIÈGE
257.5034MATHIEU DIDIER38BELSAFRAN AERO BOO3:03:147:20 8.19108senHORION-HOZEMONT
258.5255FMATHIEU CHRISTELLE40BELJOGG'IN ATTITUD3:03:157:20 8.1912ai1LIÈGE
259.5220FJULIA DMITRIEVA48NLD3:03:167:20 8.1913ai1SAINT GEORGES SUR MEUSE
260.5254MASSON VINCENT45BEL3:03:407:21 8.1765ve1MARCHE EN FAMENNE
261.5197FRANCK LIONEL35BELKAPEL TRAILER T3:03:597:22 8.15109senHENRI-CHAPELLE
262.5046DE CECCO MICHAEL41BELCLUB D'ENTREPRI3:04:327:23 8.1366ve1
263.5301SOARES FERNANDO44BEL3:04:327:23 8.1367ve1OUPEYE
264.5425DUMONT BERNARD54BEL3:04:517:24 8.1231ve2LATINNE
265.5290FRODRIGUEZ PATRICIA54BELILR3:05:027:25 8.116ai2LIEGE
266.5198FFRANCK SHIRLEY36BEL3:05:027:25 8.1125damTILFF
267.5183D'OVIDIO RAPHAEL43BELRUN IN LIEGE3:05:087:25 8.1068ve1LIEGE
268.5111FNADIN BARBARA46BELCAP NRB3:05:197:25 8.0914ai1ANGLEUR
269.5114TYCHON EMMANUEL45BELCAP NRB3:05:227:25 8.0969ve1ANGLEUR
270.5069JUNG PAUL23FRAHEPL KINE3:05:327:26 8.09110senLIÈGE
271.5117DANIEL ALAIN39FRACRMGROUP 20193:06:017:27 8.06111senHANNUT
272.5426KNAPEN ROMAIN29BEL3:06:067:27 8.06112senLIÈGE 1
273.5273FPEETERS JULIE37BEL3:06:197:28 8.0526damGRIVEGNÉE
274.5138FAYHAN SELMA18BEL-3:06:207:28 8.051esfMONTEGNÉE
275.5097SIMON GIL42BELRESA3:06:257:28 8.0570ve1VISÉ
276.5165CICCARELLA TONY45ITACICCARELLA3:06:367:28 8.0471ve1ESNEUX
277.5008FLEYENS MARIE-ANNE63BEL3:06:387:28 8.041ai3ANGLEUR
278.5507SCHIDLO ERIC40BEL3:06:517:29 8.0372ve1VISÉ
279.5520BRUWIER PIERRE52BEL3:06:517:29 8.0332ve2VISE
280.5006BRUWIER ERIC51BEL3:06:577:29 8.0233ve2DALHEM
281.5519FBAGUETTE CAROLINE42BEL3:06:587:29 8.0215ai1RICHELLE
282.5167CLOSE JEAN-CHRISTOPHE50BELILR3:07:027:29 8.0234ve2LIEGE
283.5271PALUMBO PINO62BEL3:07:037:29 8.027ve3LIÈGE
284.5229LAHAYE MARC41BEL3:07:067:30 8.0273ve1BASSENGE
285.5267OLIVIER PASCAL47BEL3:07:107:30 8.0174ve1TILLEUR
286.5179DENOEL ALAIN58BEL3:07:167:30 8.0135ve2LIEGE
287.5203GHILAIN FRANÇOIS35BELARCELORMITTAL L3:07:247:30 8.00113senLIEGE
288.5142BERTRAND THIERRY58BELARCELORMITTAL L3:07:377:31 8.0036ve2LIÈGE
289.5228LAFONTAINE PIERRE25BEL3:07:427:31 7.99114senLIÈGE
290.5047FPAQUAY SARA25BELCLUB D'ENTREPRI3:07:477:31 7.9927damSPRIMONT
291.5207GUSTIN MAXIME32BELILR3:09:117:35 7.93115senLIÈGE
292.5309THOMAS JOËL44BEL3:09:137:35 7.9375ve1LINCENT
293.5512FKUMPEN MARIE LAURE37BEL3:09:147:35 7.9328damLIEGE
294.5016ELMEKKI MOHAMED50BEL3:09:567:36 7.9037ve2GRIVEGNEE
295.5135FVANDEVELDE STEPHANIE47BELTIZIANO PORCINO3:10:437:38 7.8716ai1WIHOGNE
296.5171FDAOUST SOPHIE40BEL3:10:527:39 7.8617ai1TONGEREN
297.5154BRAHAM NICOLAS G.32BEL3:11:167:40 7.84116senLIÈGE
298.5511PECORARO ARNAUD18BEL3:12:247:42 7.806espLIEGE
299.5074DAUBY PIERRE22BELHEPL BEECKMAN3:13:307:45 7.75117senWANZE
300.5241FLIMBURG MONIQUE43BEL3:14:437:48 7.7018ai1NEUPRÉ
301.5128DEBEY JOACHIM53BELLGS3:15:007:48 7.6938ve2LIÈGE
302.5107JORIS YVES32BELMUCO RUN LIÈGE3:15:147:49 7.68118senLIÈGE
303.5291FROGISTER MARIEVE34BEL3:15:267:50 7.6829dam4920
304.5247LUST CORENTIN31BEL3:17:197:54 7.60119senLIÈGE
305.5447LEYSEN TOM34BEL3:17:307:54 7.60120senLIÈGE
306.5244LOMMA LIONEL35BEL3:18:557:58 7.54121senOUPEYE
307.5268ORTUNO JUAN CARLOSBEL3:18:577:58 7.545xxxWANDRE
308.5100FSTAES-POLET SABINE55BELRUN IN LIÈGE3:19:368:00 7.527ai2ROMSÉE
309.5099FLAMING MARY36BELRUN IN LIÈGE3:19:368:00 7.5230damVISÉ
310.5109FMOTTEN STÉPHANIE30BELMUCO RUN LIÈGE3:20:018:01 7.5031damGRÂCE-HOLLOGNE
311.5331WESPHAEL BORIS34BEL3:20:388:02 7.48122senDOLEMBREUX
312.5021LEENDERS MELVIN32BEL3:21:508:05 7.43123senVILLERS LE BOUILLETS
313.5462NOIRHOMME MARC52BELAREL TRAIL LUXE3:22:358:07 7.4039ve2ARLON
314.5463FLHOAS FRANÇOISE55BELAREL TRAIL LUXE3:22:368:07 7.408ai2ARLON
315.5173DE CECCO FRÉDÉRIC46BELJCPMF3:23:298:09 7.3776ve1FLERON
316.5086LASSINE CEDRIC51BELDUO FOR A JOB 23:24:258:11 7.3440ve2AYWAILLE
317.5280PIQUARD BEN52BEL3:24:338:11 7.3341ve2GENVAL
318.5240LEVECQ YANNICK38BEL3:25:048:13 7.32124senMÉRY
319.5276FPÊTE DOROTHÉE36BELULIEGE - JCPMF 3:25:078:13 7.3132damGLAIN
320.5249MANFREDINI TIBER48BELULIEGE -3:27:338:19 7.2377ve1LIÈGE
321.5176FDELGUSTE CATHERINE43BELULIEGE -3:27:348:19 7.2319ai1GRIVEGNEE
322.5019HABRAN PHILIPPE54BELANS EN FORME3:27:348:19 7.2342ve2ANS
323.5259MICHELS RONALD39BEL3:28:138:20 7.20125senBREE
324.5223KAN YVAN54BEL3:30:298:26 7.1343ve2LIEGE
325.5284POLLARD LUC53BELWACO3:31:568:29 7.0844ve2LIGNEY
326.5323VANHAEREN MAXIME24BELULIEGE -3:32:478:31 7.05126senSAROLAY
327.5064DUFERT ROMAIN24BELHEPL KINE3:32:478:31 7.05127senAUBEL
328.5330FWARNOTTE VIVIANE40BEL3:33:548:34 7.0120ai1DOLEMBREUX
329.5329FWARNOTTE MARIE41BEL3:33:548:34 7.0121ai1ESNEUX
330.5333WINANDTS SÉBASTIEN41BEL3:37:308:42 6.9078ve1LIÈGE
331.5098FDODÉMONT CÉLINE43BELRUN IN LIÈGE3:38:308:45 6.8722ai1ALLEUR
332.5025FPETIT LUDIVINE43BELRUN IN LIÈGE3:38:408:45 6.8623ai1LIÈGE
333.5170FDANIELS CATHERINE44BELI L R3:38:418:45 6.8624ai1SERAING
334.5224KEMPENEERS MICHEL51BEL3:39:198:47 6.8445ve2TROOZ
335.5265OFFERMANN CHARLY44BEL3:39:198:47 6.8479ve1DOLEMBREUX
336.5303FSPEDIACCI MARION23FRAULIEGE -3:39:418:48 6.8333damLIEGE
337.5053DIMARTINO MAXIME23FRAHEPL - PERSONNE3:39:438:48 6.83128senLIÈGE
338.5037RENAUD MATHIEU33FRASAFRAN AERO BOO3:40:138:49 6.81129senLIEGE
339.5194FFOUARGE ADÈLE23BELULIEGE -3:41:368:52 6.7734damLIÈGE
340.5195FOUARGE ANDRÉ57BELURUKAÏ3:41:378:52 6.7746ve2LIÈGE
341.5322VANESSE JEAN DENIS53BEL3:42:088:54 6.7547ve2MEEFFE
342.5024ADANT FRÉDÉRIC46BELJCPMF JUPRELLE3:42:318:55 6.7480ve1ROCOURT
343.5509PAQUE JEAN-MARC53BEL3:43:048:56 6.7248ve2TILFF
344.5314FTULPINCK GISÈLE58BELJCPMF WALHAIN3:44:088:58 6.699ai2WALHAIN
345.5325FVANWYNSBERGHE ALINE27BELULIEGE -3:44:108:58 6.6935damWALHAIN
346.5412DE VRIES HARRY56NLDREACTIVE3:45:199:01 6.6649ve2NIEUWEGEIN
347.5189FDUTRIEUX MARIE43BELJCPMF JUPRELLE3:47:149:06 6.6025ai1VILLERS SAINT SIMEON
348.5184FDUBOIS BÉNÉDITTE55BELJUPRELLE JOGGIN3:47:149:06 6.6010ai2VOROUX-LEZ-LIERS
349.5119NOUPRE GEOFFREY30BELGAMING13:48:419:09 6.56130senTROIS-PONTS
350.5042FNYSSEN MICHÈLE57BELTEAM SOLIDARIS3:50:199:13 6.5111ai2BEAUFAYS
351.5293SAFIN ANTOINE41BELCO LIÈGE3:53:309:21 6.4281ve1ANGLEUR
352.5072FRIVET CLÉMENCE23FRAHEPL KINE3:57:549:31 6.3136damVAUX LE PÉNIL
353.5157FBROERS MIREILLE49BEL4:03:469:46 6.1526ai1OUPEYE
354.5199FUENTES FRANCISCO56LUX4:04:059:46 6.1550ve2WAREMME
355.5212FHERKENNE AURÉLIE38BELJIA ET ETHIAS R4:07:039:53 6.0737damLIÈGE
356.5287FRENARD CHRISTINE49BELETHIAS RUNNING4:07:079:54 6.0727ai1LIEGE
357.5115FURBAIN PASCALE47BELCAP NRB4:07:139:54 6.0728ai1MOMALLE
358.5442FRICHARD CÉCILE51BELRUNNING ETHIAS4:07:179:54 6.0712ai2LIEGE
359.5443FSERVAIS MURIEL48BEL4:07:239:54 6.0629ai1ANS
360.5238FLEMAY CRISTELLE41BELLES GAZELLES DE4:19:4910:24 5.7730ai1WANDRE
361.5164FCHARLIER EDITH36BEL4:20:5310:27 5.7538damJUPRELLE
362.5298FSCHRECK VALERIE41BEL4:20:5310:27 5.7531ai1FEXHE_SLINS
363.5513GELELEENS YVES GUILLAUME55BEL4:40:2811:14 5.3551ve2VISÉ
364.5410DE BEER ROGER55BELOCRBW5:07:5212:19 4.8752ve2ANS
365.5411FDE BEER MICHÈLE62BELOCRBW5:07:5312:19 4.872ai3ANS
366.5296SCHNEIDERS JEAN-PIERRE57BELULIEGE -5:39:5813:36 4.4153ve2NEUVILLE-EN-CONDROZ
367.5285FPROSMANS FABIENNE47BELULIEGE -5:40:0013:36 4.4132ai1NEUVILLE-EN-CONDROZ
DSQ5078CLEMENTE RAMOS THOMAS22BELHAUTE ECOLE CHA2:33:34senNEUPRE
DSQ5058FPASQUASY NATHALIE41BELHEPL - PERSONNE3:17:11ai1BONCELLES
DNF5169COURTOY THIERRY60BELve3LONCIN
DNF5174DE GREGORIO FABRICE46BELTRIATHLIÈGEve1ANGLEUR
DNF5175DELCHAMBRE FRÉDÉRIC46BELVINO TEAMve1AVENNES
DNF5014FAORLIN FABIANO56ITAMPW/HJMve2WANDRE - LIÈGE
DNF5226LABASSE ALAIN52BELve2CHAUDFONTAINE
DNF5409FMACHIELS BÉNÉDICTE36BELdamTROOZ
DNF5258MEWISSEN THIERRY55BELve2LIÈGE
DNF5308FTHIRION NATHALIE48BELTCBMai1SOUMAGNE
DNF5326VANWYNSBERGHE BERNARD59BELJCPMF WALHAINve2WALHAIN
DNF5487VARETTO SÉBASTIEN28BELsenLIÈGE
DNF: did not finish; DSQ: disqualified; Speed in km/h
Page: [1]